Simultaneous Nadir Overpasses (SNOs) Predictions

Prediction of SNOs between AQUA and GOES-15 Satellite Orbit:

Table of predicted SNOs for the next 14.0 days since TLE Epoch: 4/26/2013
Index Date Time (AQUA) AQUA Lat,Lon GOES-15 Lat,Lon Distance(km) Time Diff (sec)
1 04/27/2013 10:20:46 -0.79,-131.28 0.04,-135.26 452.64 80
2 04/27/2013 22:42:10 -0.27,-136.48 -0.03,-135.27 137.39 80
3 04/29/2013 22:29:59 0.36,-133.52 -0.03,-135.29 202.27 80
4 04/30/2013 10:51:13 0.75,-138.67 0.03,-135.31 382.57 80
5 05/02/2013 10:39:01 0.10,-135.71 0.03,-135.33 43.25 80
6 05/04/2013 10:26:48 -0.50,-132.74 0.04,-135.35 296.02 80
7 05/04/2013 22:48:12 -0.60,-137.94 -0.03,-135.35 294.70 80
8 05/06/2013 22:35:59 0.03,-134.97 -0.03,-135.37 44.36 80
9 05/08/2013 22:23:46 0.67,-132.01 -0.02,-135.38 382.80 80
10 05/09/2013 10:45:02 0.37,-137.18 0.01,-135.39 202.10 80




NCC Satellite Simultaneous Nadir Overpasses (SNOs) Prediction Service
